FLOCK 4Q 33

导读

FLOCK 4Q 33是美国Planet Labs公司FLOCK系列SuperDove卫星星座中的一员,于2023年11月11日发射升空。作为3U立方星,它配备29MP光学传感器,在475公里轨道可获取3.7米地面分辨率遥感影像,用于地球观测。它是Planet星座组网补网的组成部分,可提供高重访率对地观测数据,服务农业、测绘、环境监测等商业领域。

Basic Information
目录编号:
58308
目录名称:
FLOCK 4Q 33
国际标识:
2023-174BE
轨道中心:
EARTH
卫星名称:
FLOCK 4Q 33
卫星全名:
--
卫星状态:
在轨 (已飞行989 天)
发射日期:
2023-11-11 UTC
国别 :
美国 (US)
星等 :
--
Orbit Information
数据来源 国际轨道数据
星历时间: 2026-07-26T12:55:38+0800
1天前
查看轨道信息
半长轴: 6751.514km
偏心率: 0.0004362
轨道倾角: 97.385°
近地点辐角 300.322°
升交点赤经 300.898°
平近点角 59.761°
近地点: 370.431km
远地点: 376.323km
周期: 92.016分钟
每日圈数: 15.64952
Detailed Information
使用方式:
暂无
2D Orbit Map
3D Orbit Map
Orbit Altitude Analysis Chart
Orbit Inclination Analysis Chart
Orbit Comprehensive Analysis Chart
View Comprehensive Chart